Wetbulb
60.71 60.78 61.70 61.93 61.45 61.02 61.18 60.96 60.24 59.70 59.61 59.87 59.97 59.71 60.15 60.31 60.04 58.80 58.07 58.03 58.42 58.63 58.54 58.57 59.24 59.39 60.53 56.15 55.87 61.77 64.82 65.41 62.93 60.54 58.46 56.78 55.37 54.40 50.90 52.06 52.78 50.79 53.01 54.74 55.45 55.21 54.74
59.61 60.00 60.02 60.62 61.30 61.14 61.30 60.62 59.93 59.58 59.53 59.37 59.71 59.50 59.46 59.58 59.34 58.46 57.97 57.79 57.82 57.80 57.86 58.43 59.42 58.38 58.57 51.57 59.89 61.77 61.11 60.48 60.38 59.28 58.18 57.87 55.63 55.78 52.78 52.96 51.39 52.74 53.63 52.02 53.77 53.85 54.54
58.75 59.29 59.70 59.48 60.05 60.52 60.73 59.93 59.54 59.34 59.41 59.68 59.77 59.39 59.25 59.38 58.67 57.81 57.47 57.47 57.42 57.50 57.86 58.87 59.95 60.80 56.82 54.30 59.16 60.29 60.18 59.06 60.17 59.34 57.24 58.77 58.41 55.33 55.35 51.28 54.55 52.80 49.65 51.37 52.51 54.55 54.00
57.57 58.18 59.12 59.10 58.95 59.49 59.28 59.25 58.98 59.15 59.17 59.29 59.80 59.62 59.13 58.58 57.73 56.85 56.54 56.77 56.77 57.43 58.17 59.13 59.94 60.51 54.77 60.07 58.85 57.21 58.14 58.26 60.62 60.19 59.51 59.77 59.63 56.12 53.86 55.01 52.93 49.37 50.28 46.88 52.94 54.13 54.76
56.87 57.13 58.07 58.65 58.52 58.83 58.89 58.98 58.76 59.00 58.96 59.08 59.16 59.04 58.76 58.31 57.35 56.26 56.15 56.53 57.09 57.97 58.93 58.82 61.17 61.08 55.01 58.90 54.66 57.22 59.46 57.08 58.41 59.43 59.91 59.51 57.41 55.43 55.29 50.83 48.28 49.83 46.04 47.97 50.64 54.57 53.88
56.05 56.33 56.40 57.06 58.22 58.48 58.93 59.00 58.65 58.56 58.42 58.59 58.83 58.75 58.46 58.31 57.21 55.97 55.56 56.54 59.43 58.60 61.23 61.70 61.17 55.18 56.55 53.53 56.58 59.17 60.39 58.99 56.40 56.89 56.14 56.04 54.71 51.86 51.49 49.38 42.64 45.65 47.68 49.09 48.77 52.46 52.89
55.25 55.48 55.35 55.95 56.58 57.82 58.74 59.24 58.41 57.85 58.06 58.30 58.50 58.65 58.31 58.35 57.40 56.27 58.33 62.03 57.57 58.64 58.71 55.60 55.36 55.06 56.02 57.03 59.45 55.81 57.89 57.16 56.19 54.77 49.90 53.83 49.27 46.93 48.76 51.81 50.30 50.22 48.11 47.11 50.69 53.37 51.65
54.12 54.52 54.67 55.13 55.85 56.49 57.81 58.84 58.48 57.51 57.97 58.08 58.08 58.10 58.39 58.05 57.24 56.51 59.24 58.78 59.38 60.73 53.90 57.89 57.14 57.07 58.02 59.23 54.35 55.95 57.85 53.68 53.05 49.54 51.59 49.50 46.65 50.49 49.86 52.22 50.44 48.40 46.95 47.27 50.99 52.66 51.07
53.04 53.53 54.15 54.85 55.46 56.07 56.76 57.34 58.33 57.66 57.63 57.63 57.63 57.80 58.00 57.46 56.60 58.64 59.74 61.10 63.85 62.79 52.50 53.26 55.53 54.64 54.86 56.99 53.57 54.57 55.16 54.10 50.97 49.27 49.72 47.54 49.44 52.15 50.73 49.76 47.91 48.33 47.77 48.27 48.57 51.48 52.25
52.59 52.80 53.16 53.75 53.88 54.77 55.16 56.48 57.66 57.95 57.51 57.04 56.97 56.99 56.95 57.06 56.60 59.95 59.02 63.20 64.14 64.78 47.93 48.03 50.65 54.25 55.22 56.02 52.56 57.98 57.96 53.67 51.68 48.16 49.85 49.10 51.42 50.04 49.74 48.39 49.27 46.23 51.16 50.61 49.86 48.49 43.98
52.17 52.26 52.55 52.96 53.38 53.97 53.46 54.24 56.29 57.83 57.33 56.72 56.32 56.48 56.08 55.92 59.30 57.70 59.97 64.53 64.82 62.51 35.18 50.65 52.62 58.71 57.00 54.03 53.22 54.04 58.13 54.76 49.53 49.62 49.87 47.73 48.88 48.79 47.70 48.09 50.36 48.27 52.90 50.71 49.96 47.86 47.26
51.74 52.05 52.20 52.34 51.94 52.11 52.48 52.56 52.33 56.54 57.04 56.10 55.96 56.08 55.56 57.54 58.57 61.67 64.95 64.23 62.66 46.38 36.39 47.98 53.54 52.44 51.76 53.61 53.67 54.55 54.90 56.67 54.37 50.58 51.16 49.95 52.90 51.11 50.15 51.43 51.49 52.51 50.91 50.77 50.01 47.64 41.52
51.30 51.53 51.63 51.57 51.36 51.76 52.29 52.31 52.22 54.12 56.32 56.02 55.62 55.80 56.37 59.40 55.32 63.54 65.02 59.81 44.00 38.08 49.82 47.16 48.99 51.55 50.70 49.50 50.62 51.58 50.65 50.49 47.61 44.24 45.01 48.49 49.09 51.65 52.29 48.80 51.21 50.80 48.20 41.57 39.78 39.95 39.62
51.05 51.07 51.13 51.17 51.15 51.07 51.79 52.20 51.86 51.80 55.76 55.92 55.03 54.79 56.78 58.53 62.52 66.77 63.60 49.72 35.57 44.41 46.14 51.80 50.92 51.16 48.49 51.03 50.27 50.49 49.16 47.51 50.63 49.26 45.66 43.31 42.22 48.76 51.37 49.41 47.94 48.48 47.86 42.50 35.83 38.49 41.88
50.65 50.59 50.67 50.62 50.61 50.92 51.65 52.22 51.99 51.73 54.88 55.18 54.48 56.74 57.12 57.52 64.03 63.91 50.81 39.53 39.38 43.62 49.17 48.63 49.47 46.45 47.32 50.72 50.59 49.55 48.86 48.49 50.36 50.64 45.07 44.26 44.54 51.59 52.08 51.70 51.46 48.66 45.56 50.04 45.01 46.65 43.06
50.52 50.57 50.29 50.40 50.40 50.47 51.10 50.70 52.16 52.18 54.68 54.09 55.15 54.71 54.22 59.45 61.60 56.87 46.39 40.33 42.73 48.27 50.77 50.12 45.58 48.90 44.45 48.06 48.39 48.25 48.43 51.67 50.72 52.34 52.86 49.06 43.81 50.20 50.74 51.96 51.50 49.42 51.72 44.54 46.24 38.32 36.88
49.89 50.20 50.17 50.38 50.13 50.28 50.40 50.89 51.38 52.23 54.30 54.19 54.41 48.94 54.06 60.23 58.48 50.12 39.33 40.47 44.33 49.01 50.97 47.89 47.76 47.46 48.80 47.89 48.98 48.01 48.52 51.44 52.28 51.11 52.04 50.41 49.78 47.59 50.17 47.77 46.71 46.62 45.94 49.19 48.47 46.14 40.48
49.39 49.67 49.51 49.62 49.72 49.75 50.11 50.66 50.99 52.24 53.80 52.98 52.18 45.18 56.16 57.67 45.97 45.52 39.96 43.38 45.61 47.17 51.50 51.47 51.76 50.89 49.31 49.84 49.02 48.50 48.20 50.80 54.40 54.37 48.61 51.93 50.07 44.75 46.98 51.63 52.02 51.16 48.54 49.36 45.89 42.59 46.60
49.08 48.72 48.61 48.67 48.99 49.61 49.89 50.61 50.87 50.81 53.52 52.70 48.64 49.37 56.40 53.87 38.85 41.01 45.77 44.83 48.21 48.16 49.91 49.84 49.17 51.87 52.85 48.66 46.14 48.90 50.36 54.16 53.97 53.86 50.87 52.35 48.81 42.38 42.40 49.27 51.72 49.57 49.97 50.64 50.56 49.88 43.44
48.73 48.48 48.45 48.42 48.44 49.28 49.89 49.79 50.53 50.96 53.47 54.20 48.44 42.35 48.75 48.16 48.08 44.73 43.82 43.96 44.19 50.55 50.37 51.72 50.91 52.37 51.16 48.78 52.06 49.23 49.89 52.30 54.20 54.33 50.06 52.90 48.91 45.64 40.23 43.98 48.67 46.97 48.85 50.51 48.90 43.09 44.26
48.79 48.18 48.07 47.89 48.04 48.97 49.44 48.91 49.57 51.20 53.14 53.79 48.05 44.63 46.53 40.62 43.69 45.94 47.39 46.03 44.13 44.86 50.39 51.90 49.78 49.71 49.57 46.83 48.76 48.55 51.14 51.60 53.12 49.34 52.07 53.05 45.74 47.80 47.45 49.37 49.14 49.19 47.81 49.14 47.53 48.03 44.46
48.59 48.11 47.94 47.93 48.28 48.84 48.47 48.17 49.62 50.36 52.83 51.84 45.59 45.67 47.62 46.60 46.48 45.42 44.77 44.68 44.62 47.08 48.53 47.37 47.66 49.36 50.64 48.76 49.20 47.78 50.70 49.51 50.07 51.71 52.17 53.49 47.11 48.06 40.29 48.24 47.84 45.16 48.55 48.34 48.81 48.77 48.41
47.93 47.80 47.52 47.69 48.07 48.56 48.73 48.56 49.58 49.86 51.27 49.76 50.25 53.29 48.90 45.02 44.70 43.39 44.92 45.94 46.39 49.05 50.72 51.99 50.81 49.90 49.35 50.95 53.62 53.99 54.11 54.84 53.45 51.78 51.48 50.80 49.14 45.94 41.51 47.04 46.44 42.48 46.53 47.32 47.99 49.36 48.87
47.32 47.50 47.56 47.38 47.92 48.00 48.89 49.23 48.98 49.34 50.45 52.23 52.35 52.29 46.44 40.82 44.10 44.47 46.35 47.53 47.33 49.33 48.82 50.63 52.75 49.75 53.16 56.64 55.89 54.30 53.44 53.32 53.32 53.36 53.52 49.90 48.39 47.09 43.07 44.83 35.56 46.59 51.10 50.21 48.29 49.12 50.71
47.19 47.25 47.32 47.25 47.50 47.47 48.22 48.77 49.21 49.47 49.64 51.34 54.46 52.81 47.78 42.46 46.84 45.81 46.22 47.11 48.73 49.50 49.11 49.65 52.02 53.80 57.06 53.52 47.79 44.24 44.37 45.71 48.20 51.55 51.36 52.38 48.26 42.64 41.00 40.54 43.83 45.87 47.88 46.94 45.64 45.85 50.55
46.78 47.17 47.27 47.06 47.03 46.67 46.85 48.44 48.93 48.90 49.22 49.68 53.68 55.46 52.16 45.50 44.68 49.85 46.52 48.72 46.16 45.93 46.00 48.43 52.26 53.96 53.29 49.04 45.10 38.50 37.53 41.21 40.66 44.28 50.60 50.12 50.42 45.42 43.24 37.76 34.82 45.00 49.78 51.69 50.30 40.87 50.16
45.79 46.59 46.93 46.96 46.81 46.32 46.37 48.03 48.48 48.68 48.47 47.15 50.73 55.33 52.80 45.07 48.15 48.88 46.88 47.76 50.43 46.94 44.91 47.37 48.75 48.66 53.25 45.28 40.58 39.61 39.47 44.60 39.90 40.06 40.91 43.38 44.94 40.85 40.07 38.98 42.82 48.98 49.68 50.82 39.49 43.13 51.35
45.53 46.19 46.42 46.65 46.65 45.93 45.70 47.64 48.07 48.82 48.23 47.86 48.20 53.46 53.01 47.64 48.21 50.12 50.27 48.80 48.79 48.46 43.15 45.74 43.67 44.19 45.61 42.88 42.61 43.34 43.17 44.79 43.62 45.42 42.82 42.28 40.34 40.62 42.06 38.50 35.37 50.81 48.96 43.98 50.16 53.55 52.21
45.35 45.77 46.21 46.42 46.60 45.51 46.65 47.22 47.55 48.11 47.59 47.55 45.27 51.13 52.96 45.30 41.89 48.52 47.94 48.98 49.07 51.52 48.25 49.01 47.37 46.40 48.32 46.43 47.22 47.24 43.63 46.41 44.79 39.80 48.33 40.82 45.25 42.65 43.12 43.69 51.60 53.58 52.45 52.95 55.17 53.64 53.48
MSLP
1020.22 1020.24 1020.14 1020.06 1020.16 1020.20 1020.50 1020.71 1020.93 1021.14 1021.16 1020.92 1020.84 1020.50 1020.45 1020.15 1019.91 1019.58 1019.25 1018.89 1018.37 1017.88 1017.33 1016.72 1015.99 1015.36 1014.05 1011.95 1010.69 1011.33 1011.51 1011.10 1010.93 1010.27 1009.83 1009.37 1008.92 1008.44 1007.80 1007.19 1006.90 1006.61 1006.26 1005.97 1006.09 1006.43 1007.00
1020.19 1020.11 1020.06 1020.17 1020.01 1020.09 1020.23 1020.34 1020.67 1020.90 1021.04 1020.80 1021.05 1020.38 1020.37 1020.13 1019.88 1019.47 1019.10 1018.73 1018.36 1017.83 1017.27 1016.70 1016.19 1015.51 1014.34 1011.94 1010.44 1010.69 1010.87 1010.78 1010.56 1010.33 1009.74 1009.57 1009.23 1008.95 1008.52 1007.73 1007.69 1007.07 1006.75 1006.41 1006.20 1006.62 1006.96
1020.19 1020.07 1020.04 1020.01 1019.96 1020.01 1020.14 1020.37 1020.49 1020.60 1020.81 1020.82 1020.94 1020.56 1020.22 1020.16 1019.74 1019.45 1018.84 1018.45 1018.04 1017.68 1017.12 1016.59 1016.34 1015.51 1013.59 1011.43 1010.39 1010.38 1010.63 1010.69 1010.54 1010.28 1009.93 1009.61 1009.76 1009.46 1008.73 1008.10 1007.54 1007.51 1006.98 1006.52 1006.37 1006.51 1007.13
1020.01 1020.01 1020.05 1019.89 1020.04 1019.90 1019.85 1020.06 1020.26 1020.59 1020.63 1020.67 1020.88 1020.60 1020.32 1020.10 1019.95 1019.28 1018.70 1018.16 1017.71 1017.26 1016.92 1016.39 1016.28 1015.46 1012.65 1010.42 1010.44 1010.51 1010.35 1010.03 1010.09 1010.21 1010.05 1009.99 1010.06 1009.66 1009.13 1008.31 1007.88 1007.46 1007.02 1006.39 1005.95 1006.58 1007.08
1019.61 1019.73 1019.80 1019.68 1019.66 1019.61 1019.79 1019.79 1019.84 1020.22 1020.30 1020.72 1020.64 1020.36 1020.40 1020.47 1019.96 1019.36 1018.71 1017.91 1017.19 1016.71 1016.56 1016.33 1015.74 1014.45 1011.80 1010.91 1010.34 1009.83 1010.01 1009.73 1009.39 1009.96 1010.10 1010.06 1010.04 1009.32 1008.51 1008.37 1007.66 1006.87 1006.42 1005.76 1005.93 1006.42 1006.85
1019.26 1019.07 1019.02 1019.26 1019.54 1019.51 1019.55 1019.47 1019.64 1019.90 1020.19 1020.29 1020.40 1020.18 1020.51 1020.80 1019.91 1019.20 1018.93 1017.57 1015.99 1016.59 1015.31 1015.41 1014.56 1014.01 1011.26 1010.11 1010.00 1010.09 1009.88 1009.86 1009.57 1009.61 1009.71 1009.86 1009.50 1008.94 1008.35 1007.89 1007.37 1006.56 1006.25 1005.26 1005.53 1006.44 1007.15
1019.15 1019.15 1019.04 1019.11 1019.27 1019.35 1019.26 1019.09 1019.20 1019.40 1019.59 1020.01 1020.30 1020.45 1020.24 1020.13 1019.93 1019.22 1019.44 1016.55 1015.44 1015.76 1015.03 1013.71 1012.48 1011.97 1010.79 1010.22 1010.46 1010.28 1009.83 1009.99 1009.72 1009.75 1009.60 1009.18 1009.12 1008.51 1007.72 1007.27 1007.15 1007.16 1006.67 1005.85 1005.32 1006.64 1007.46
1018.82 1018.77 1018.85 1018.91 1018.89 1019.05 1018.98 1018.82 1018.82 1018.99 1019.27 1019.70 1020.15 1020.27 1020.21 1020.18 1020.32 1019.35 1019.43 1016.93 1014.75 1015.59 1014.39 1012.84 1011.95 1011.09 1010.88 1010.79 1010.49 1010.13 1009.49 1009.86 1009.66 1009.38 1009.21 1009.21 1008.67 1008.21 1007.72 1007.42 1007.51 1007.31 1006.87 1006.24 1006.09 1006.69 1007.69
1018.35 1018.34 1018.28 1018.38 1018.46 1018.54 1018.90 1018.85 1018.49 1018.63 1018.82 1019.15 1019.73 1020.05 1020.15 1020.24 1019.97 1019.31 1018.09 1015.99 1014.89 1015.13 1014.26 1011.88 1010.71 1009.75 1009.64 1009.79 1009.33 1009.32 1009.46 1009.49 1009.26 1009.15 1008.84 1008.19 1007.68 1007.30 1007.43 1007.54 1007.61 1007.24 1006.75 1006.22 1005.99 1006.49 1007.69
1017.65 1017.71 1017.79 1017.95 1018.02 1017.93 1017.97 1018.34 1018.26 1018.16 1018.47 1018.64 1019.17 1019.62 1019.90 1020.16 1020.18 1018.10 1016.66 1015.40 1015.43 1015.59 1014.00 1010.36 1008.42 1007.74 1008.18 1008.70 1008.33 1008.66 1008.59 1008.85 1008.65 1008.42 1008.22 1007.64 1007.36 1007.26 1007.53 1007.52 1007.35 1006.89 1006.34 1006.33 1006.36 1006.70 1007.30
1016.89 1017.03 1017.17 1017.33 1017.54 1017.63 1017.54 1017.90 1017.86 1017.52 1017.71 1018.15 1018.47 1018.99 1019.69 1019.87 1018.60 1017.14 1015.83 1015.54 1015.73 1015.85 1013.26 1008.08 1006.82 1006.74 1007.41 1008.22 1007.76 1007.39 1007.70 1007.84 1008.02 1007.83 1008.17 1007.32 1007.06 1006.90 1007.18 1007.13 1007.10 1006.84 1006.72 1006.58 1007.07 1007.26 1007.48
1016.48 1016.53 1016.46 1016.52 1016.73 1017.00 1017.20 1017.20 1017.65 1017.06 1017.24 1017.54 1017.72 1018.38 1019.18 1019.74 1019.25 1017.07 1015.76 1015.95 1016.11 1015.44 1011.34 1008.19 1007.24 1007.53 1007.85 1008.19 1008.11 1007.52 1007.50 1007.42 1007.77 1007.93 1007.42 1007.29 1006.88 1006.55 1006.86 1006.92 1006.83 1006.90 1007.38 1007.48 1007.64 1007.76 1007.51
1015.55 1015.60 1015.82 1015.80 1016.05 1016.35 1016.60 1016.35 1016.82 1016.79 1016.36 1016.68 1017.22 1017.71 1018.26 1018.03 1017.16 1016.56 1017.07 1015.93 1016.07 1013.56 1010.08 1008.16 1006.97 1007.32 1007.68 1007.60 1007.63 1007.55 1007.63 1007.35 1007.50 1007.65 1007.17 1007.14 1006.67 1006.56 1006.78 1006.68 1006.69 1007.07 1007.47 1007.67 1007.86 1007.80 1007.21
1014.52 1014.70 1014.84 1014.93 1015.11 1015.46 1015.75 1015.55 1016.04 1016.35 1015.34 1015.85 1016.29 1017.06 1017.33 1017.11 1016.65 1016.30 1017.00 1017.06 1015.64 1012.01 1010.50 1007.53 1007.26 1006.61 1006.82 1006.95 1007.08 1007.09 1007.09 1007.15 1007.26 1007.24 1006.69 1006.47 1005.96 1006.17 1006.36 1006.64 1006.28 1006.88 1007.41 1007.52 1007.36 1007.49 1008.01
1013.93 1013.87 1013.96 1014.06 1014.21 1014.59 1014.87 1014.69 1015.28 1015.42 1014.51 1014.80 1015.42 1016.39 1016.59 1016.44 1016.39 1016.71 1017.27 1016.90 1013.95 1012.44 1010.08 1008.95 1008.50 1007.88 1007.17 1006.74 1006.80 1006.61 1006.48 1006.54 1006.28 1006.58 1006.66 1006.05 1005.11 1004.80 1004.87 1006.03 1006.66 1006.58 1006.93 1007.26 1007.55 1007.93 1008.51
1013.20 1013.21 1013.22 1013.22 1013.55 1013.89 1013.71 1014.28 1014.17 1014.26 1013.47 1013.86 1013.63 1014.46 1015.31 1015.62 1016.01 1016.51 1016.66 1015.30 1014.02 1012.67 1010.96 1009.85 1008.74 1007.68 1007.00 1006.62 1006.59 1006.56 1006.29 1005.75 1005.63 1005.26 1006.02 1006.06 1005.77 1004.85 1004.59 1005.88 1006.40 1006.41 1006.58 1007.20 1007.45 1008.07 1008.13
1012.47 1012.49 1012.38 1012.55 1012.76 1013.12 1013.11 1013.17 1012.98 1012.71 1012.34 1012.84 1013.17 1012.45 1012.82 1015.27 1015.23 1015.55 1015.01 1014.27 1013.74 1012.93 1011.80 1010.96 1009.09 1007.96 1007.26 1006.96 1006.63 1006.67 1006.19 1005.76 1005.67 1005.38 1005.78 1006.35 1006.56 1006.35 1005.71 1006.28 1006.17 1006.42 1006.40 1007.02 1007.34 1008.25 1008.58
1011.66 1011.60 1011.72 1011.81 1012.06 1012.05 1012.32 1012.20 1012.20 1011.50 1011.39 1012.08 1011.85 1011.05 1011.89 1013.81 1013.92 1014.53 1014.54 1013.83 1013.44 1012.20 1011.39 1010.02 1009.03 1008.46 1007.70 1007.97 1007.10 1007.47 1006.25 1006.24 1006.35 1006.42 1006.78 1006.91 1007.79 1007.67 1006.88 1006.68 1006.39 1006.12 1006.59 1007.01 1007.45 1008.73 1009.25
1010.91 1010.93 1011.04 1011.20 1011.19 1011.27 1011.31 1011.23 1010.93 1011.28 1010.24 1010.49 1009.69 1010.10 1010.83 1011.38 1011.55 1012.46 1012.57 1012.87 1012.36 1011.14 1009.96 1009.35 1008.95 1008.28 1007.85 1008.14 1008.61 1007.92 1006.97 1008.15 1007.86 1007.72 1007.72 1007.76 1008.19 1008.99 1009.36 1007.53 1006.94 1006.51 1006.43 1006.75 1007.61 1008.41 1009.40
1010.18 1010.20 1010.28 1010.42 1010.42 1010.27 1009.91 1010.35 1009.70 1009.64 1008.58 1009.53 1008.96 1009.22 1009.29 1009.90 1010.27 1010.14 1010.60 1011.13 1011.50 1010.45 1009.31 1008.74 1008.39 1008.12 1007.80 1008.71 1007.65 1007.72 1007.99 1008.54 1008.44 1008.17 1008.49 1008.63 1008.50 1009.05 1010.15 1009.26 1007.91 1007.23 1006.79 1007.11 1007.99 1009.16 1009.24
1009.44 1009.51 1009.54 1009.39 1009.52 1009.53 1009.10 1008.23 1008.20 1008.62 1007.80 1007.89 1008.07 1007.61 1006.93 1007.76 1009.08 1008.92 1009.42 1009.74 1010.02 1009.27 1008.84 1008.19 1008.09 1007.68 1007.54 1007.32 1007.77 1007.43 1008.11 1008.86 1008.69 1008.67 1008.64 1008.79 1009.06 1009.60 1010.34 1009.60 1008.82 1008.02 1007.67 1007.70 1007.78 1008.40 1008.41
1008.80 1008.90 1008.94 1008.94 1008.70 1008.58 1008.51 1008.27 1007.90 1007.70 1007.25 1006.48 1006.35 1006.77 1007.02 1006.97 1007.81 1008.31 1008.43 1008.03 1008.21 1008.57 1007.55 1007.34 1007.44 1007.64 1007.51 1006.81 1007.13 1007.31 1008.00 1009.47 1008.15 1008.60 1008.55 1008.80 1009.58 1010.20 1010.98 1009.72 1009.26 1009.14 1008.40 1008.79 1008.05 1007.81 1007.85
1008.36 1008.30 1008.44 1008.34 1008.23 1007.72 1007.28 1007.92 1008.10 1007.29 1006.99 1005.84 1005.36 1006.03 1005.80 1006.16 1007.09 1007.51 1006.51 1006.21 1007.22 1008.07 1007.14 1006.72 1007.25 1007.08 1006.77 1006.57 1007.31 1007.60 1007.64 1008.19 1007.90 1008.08 1008.34 1008.84 1009.58 1010.24 1010.56 1010.00 1009.38 1008.81 1008.31 1007.99 1007.78 1007.69 1007.76
1007.76 1007.76 1007.78 1007.79 1007.71 1007.67 1007.52 1007.31 1006.92 1006.36 1006.31 1004.98 1004.87 1005.72 1004.94 1005.46 1005.49 1005.57 1005.19 1006.18 1007.25 1007.12 1006.61 1006.58 1006.91 1006.71 1006.87 1007.15 1008.04 1008.72 1008.44 1008.41 1008.46 1008.38 1008.65 1008.98 1009.80 1010.66 1010.93 1010.37 1009.78 1008.60 1008.04 1007.63 1007.54 1007.51 1007.24
1007.15 1007.06 1007.32 1007.43 1006.59 1006.59 1006.41 1006.50 1006.39 1006.41 1006.45 1005.40 1003.74 1003.77 1004.31 1004.68 1004.67 1005.19 1006.17 1006.70 1007.63 1007.37 1007.51 1007.12 1006.94 1006.99 1007.21 1008.10 1009.07 1009.62 1009.47 1009.40 1009.14 1008.85 1009.25 1009.52 1010.21 1011.12 1011.66 1010.81 1009.58 1008.37 1007.99 1008.07 1008.04 1007.82 1007.51
1006.66 1006.33 1005.98 1006.51 1006.65 1006.22 1005.63 1005.65 1005.78 1005.75 1006.18 1005.29 1004.23 1003.69 1004.26 1004.78 1004.86 1004.98 1006.09 1006.54 1006.95 1007.28 1008.34 1008.22 1008.29 1007.76 1008.07 1009.34 1009.98 1009.85 1009.63 1009.40 1009.27 1009.24 1009.43 1010.11 1010.76 1011.44 1012.00 1011.31 1009.70 1007.86 1007.17 1007.73 1008.31 1008.17 1007.61
1006.35 1006.07 1005.76 1005.47 1005.99 1005.80 1005.66 1005.91 1006.02 1005.28 1005.32 1005.19 1004.38 1004.23 1004.26 1004.94 1005.38 1004.88 1004.75 1005.08 1006.00 1007.13 1008.01 1008.74 1009.06 1009.69 1009.00 1009.33 1010.10 1010.00 1009.39 1008.78 1008.27 1008.80 1009.88 1010.29 1011.32 1011.43 1011.75 1011.27 1010.00 1008.27 1008.10 1008.26 1009.04 1008.90 1008.36
1005.88 1005.77 1005.55 1005.40 1005.43 1005.15 1005.14 1004.39 1004.51 1004.82 1005.33 1005.47 1004.86 1003.20 1003.15 1003.95 1004.55 1005.25 1005.10 1005.13 1006.03 1006.69 1007.44 1008.20 1009.41 1009.66 1009.56 1009.64 1009.59 1008.75 1007.77 1007.45 1007.63 1007.82 1008.99 1009.69 1010.35 1010.82 1011.26 1011.03 1010.07 1008.67 1008.53 1008.81 1008.84 1008.81 1009.06
1005.45 1005.32 1005.37 1004.98 1004.73 1005.23 1004.92 1004.71 1004.50 1003.78 1004.28 1005.41 1004.45 1003.90 1003.86 1004.39 1006.45 1006.03 1006.35 1007.13 1007.02 1006.68 1007.14 1007.71 1008.06 1008.04 1008.00 1008.02 1007.73 1007.58 1007.17 1006.53 1006.66 1007.09 1007.88 1009.10 1008.97 1009.31 1009.53 1009.04 1008.60 1008.04 1007.97 1008.53 1008.83 1009.16 1009.31
Wind_Speed
10 11 12 10 9 9 9 9 9 9 9 8 8 7 10 11 12 13 14 15 15 17 18 19 17 17 14 9 4 6 6 8 10 6 7 7 10 7 11 13 12 9 14 3 11 1 6
12 12 10 13 11 10 10 9 9 9 9 7 11 7 8 10 12 12 13 14 15 16 17 18 15 17 8 14 4 3 2 4 5 7 7 6 7 9 11 9 6 11 10 12 7 5 1
14 12 11 11 14 12 11 10 9 8 9 8 10 10 8 10 11 13 14 15 16 17 17 15 12 7 10 15 4 4 5 8 6 8 8 3 9 9 13 11 8 10 11 10 8 5 5
12 13 13 11 11 13 11 11 10 10 9 9 9 10 9 10 13 13 15 16 17 18 16 13 8 7 8 9 6 8 10 10 8 8 8 5 8 10 11 12 10 13 12 12 11 6 8
12 11 12 14 12 11 12 12 11 11 9 10 9 8 10 11 12 14 16 17 21 16 10 11 8 9 15 2 8 7 5 11 8 7 6 5 8 12 12 10 11 12 11 16 11 8 6
15 13 12 13 14 13 14 14 12 12 11 10 10 7 9 13 12 13 17 20 15 11 8 9 10 8 14 7 7 8 7 8 8 9 9 10 8 10 10 9 9 13 12 5 5 11 6
16 16 15 12 14 17 17 17 15 13 12 11 10 9 8 11 15 10 14 9 8 7 8 12 6 12 16 2 5 7 11 5 8 8 10 12 6 10 14 8 7 9 13 13 1 9 2
16 16 17 15 13 15 20 19 17 15 14 13 11 10 7 10 14 12 7 9 4 6 11 15 18 20 18 16 9 12 7 7 12 13 12 9 10 16 19 2 5 9 13 13 7 7 1
17 17 18 17 15 13 17 21 17 16 16 15 13 10 8 9 10 9 11 18 7 8 9 18 20 21 23 20 21 18 16 14 16 15 16 16 17 10 3 6 8 12 13 13 15 10 9
19 17 17 18 20 16 15 20 21 18 18 16 14 11 10 2 3 12 15 8 3 3 8 19 23 21 22 18 18 19 23 17 18 21 17 17 15 17 10 10 13 13 13 14 8 6 10
19 19 20 18 17 16 12 15 23 20 18 17 16 14 12 13 9 11 11 2 1 2 8 8 3 8 9 14 7 16 22 20 21 18 13 16 13 16 14 16 16 12 6 5 8 11 13
20 20 22 20 18 19 18 17 21 23 20 18 18 16 11 4 7 14 2 4 2 6 13 6 10 9 9 15 20 8 7 21 15 21 18 19 18 13 13 15 14 12 5 10 9 11 12
19 20 22 22 21 20 22 18 23 27 22 20 20 19 14 11 11 9 2 5 6 13 6 14 12 13 13 16 18 20 13 16 17 15 19 21 20 16 11 15 17 11 9 8 10 9 12
19 21 21 24 23 20 23 20 24 25 23 26 23 18 16 12 13 6 3 6 13 13 26 3 3 7 20 16 18 17 19 17 21 24 14 19 18 19 15 19 13 15 14 8 13 5 6
21 22 22 23 23 21 22 21 27 23 23 25 23 11 9 12 9 8 8 11 12 15 11 19 23 20 20 15 18 17 21 19 20 21 23 16 21 19 25 14 19 14 16 16 15 12 8
21 22 22 21 21 21 19 23 29 22 26 22 9 11 10 15 10 7 10 21 15 17 13 16 17 12 20 19 19 14 16 15 20 20 18 15 15 8 8 14 18 17 11 10 7 6 9
20 21 20 18 19 18 21 23 26 19 25 26 10 10 13 14 9 7 11 15 20 16 20 17 19 20 12 15 17 17 12 11 3 8 10 12 7 4 10 12 15 12 13 11 9 9 4
18 18 14 16 18 20 21 26 24 21 24 23 10 10 18 17 12 9 19 21 20 20 26 26 13 18 12 11 9 18 16 9 2 3 12 10 3 4 9 14 18 13 16 14 3 7 2
16 15 16 17 19 20 23 26 23 22 29 11 5 4 15 17 15 17 14 19 9 20 24 20 18 16 15 3 4 12 6 5 4 6 2 9 8 4 10 7 8 10 14 9 9 2 10
15 16 18 17 19 23 25 17 22 21 33 13 4 7 7 11 9 17 20 17 13 20 21 19 17 18 10 15 14 7 5 3 7 7 2 3 4 6 5 7 6 11 11 10 6 3 6
15 14 15 15 20 22 19 18 23 19 32 15 10 4 4 14 17 19 23 19 25 17 21 19 18 15 17 10 15 9 14 12 9 4 5 3 8 2 1 9 7 12 5 8 11 14 8
14 13 13 15 19 18 15 18 22 13 28 13 6 6 4 13 14 18 20 17 30 29 25 18 13 15 22 12 11 9 10 6 8 9 10 7 3 8 7 7 4 8 5 11 10 10 13
11 13 12 12 14 18 15 19 20 17 22 7 5 4 6 10 18 16 22 23 22 24 18 22 22 16 16 11 2 9 10 3 6 10 10 9 4 8 8 9 11 10 12 13 12 14 15
12 12 15 12 13 16 16 16 17 20 19 4 3 6 6 6 14 22 22 20 25 30 16 21 23 10 6 13 12 5 5 4 0 8 2 5 9 4 3 2 6 7 5 7 9 12 13
13 14 11 11 15 14 15 12 14 14 20 13 4 4 2 6 16 21 21 29 23 17 21 9 9 9 12 10 7 5 2 1 6 10 7 4 2 3 3 8 7 7 11 7 7 9 11
13 15 15 9 11 12 16 12 13 9 15 10 6 2 3 7 10 24 24 28 15 10 6 3 6 4 6 4 4 5 7 7 9 6 7 6 2 5 3 4 6 5 1 10 1 6 9
13 14 14 13 10 11 14 15 15 12 13 6 4 9 5 3 1 5 16 19 11 7 7 5 7 2 2 4 4 5 8 9 9 13 8 6 3 5 4 3 6 2 9 8 3 2 7
14 13 14 12 11 10 13 11 11 11 13 6 4 5 4 2 5 2 3 2 8 7 7 6 5 2 4 7 8 7 7 11 9 14 12 10 8 6 7 5 10 9 11 7 4 5 5
14 14 12 14 11 7 13 9 13 6 3 2 4 2 1 6 2 5 5 3 2 3 8 10 4 8 6 7 5 5 5 7 9 6 16 11 8 6 8 6 4 5 9 8 1 1 4
Wind_Direction
310 309 295 254 242 243 246 248 259 271 281 293 299 319 324 327 326 327 325 323 323 324 322 321 319 322 326 296 289 129 237 238 268 319 341 332 308 330 320 329 308 286 284 324 288 355 264
313 301 302 291 257 243 244 245 249 254 267 280 290 301 312 317 318 320 319 318 317 317 316 314 313 318 284 280 67 70 323 299 262 304 312 325 325 328 289 297 314 305 298 290 268 263 217
313 307 291 297 283 252 236 234 238 246 257 264 276 290 301 307 310 311 312 312 312 311 311 304 312 308 288 264 311 271 233 269 289 298 300 334 323 303 326 288 269 281 271 245 229 208 213
306 306 300 285 281 258 240 232 231 237 244 254 269 288 294 302 307 308 308 309 306 305 302 289 302 289 268 281 323 284 262 246 226 268 265 297 296 282 269 286 279 259 255 269 164 187 179
296 301 305 299 284 273 247 233 231 236 234 242 251 272 293 293 300 304 304 304 298 295 273 283 278 229 277 163 230 243 272 262 241 237 243 280 252 256 278 252 269 224 259 242 162 197 196
289 291 300 305 296 277 265 252 229 224 229 237 251 256 278 288 291 305 310 290 276 317 259 252 256 284 234 267 360 326 278 259 242 236 244 231 243 243 244 248 266 314 239 240 280 156 206
281 280 282 284 293 295 274 261 243 230 219 232 237 248 261 290 300 308 323 309 261 214 215 243 237 256 306 230 299 262 258 248 260 252 243 238 245 253 253 317 238 312 301 301 216 90 339
277 277 276 275 275 285 289 269 246 224 218 217 224 230 251 275 285 325 308 269 7 335 290 272 272 267 256 268 267 285 248 227 223 238 239 244 244 248 264 89 294 281 273 266 99 104 241
270 271 270 273 276 275 280 280 247 225 217 210 209 216 230 262 338 305 243 276 15 339 268 270 257 248 246 235 242 243 230 225 244 225 242 226 233 1 216 223 246 249 257 261 269 158 211
271 264 260 265 271 274 286 280 265 228 222 204 199 198 221 63 312 248 248 239 279 360 276 263 245 228 232 235 250 239 245 215 234 247 246 254 238 252 221 243 236 253 248 253 293 228 258
268 265 258 255 262 266 274 299 265 243 222 207 189 187 208 190 342 221 243 108 222 240 279 292 24 165 223 193 265 204 219 223 233 234 233 250 229 242 238 237 241 250 320 251 251 258 261
261 258 261 250 254 260 267 278 291 246 225 202 186 185 182 225 243 259 140 191 234 233 245 255 137 166 198 207 245 259 235 226 222 242 247 243 264 245 214 246 245 257 219 253 260 263 255
263 260 257 250 249 254 261 259 267 268 222 205 191 186 177 212 217 231 263 162 234 229 238 232 201 186 207 232 225 235 191 221 216 226 233 245 232 251 248 235 229 229 226 233 228 229 245
264 262 257 252 247 251 258 258 264 268 219 204 188 181 201 219 230 199 185 217 222 242 233 6 143 304 218 219 244 214 230 226 213 240 240 225 235 226 200 231 223 212 228 235 232 246 359
262 261 261 252 244 250 252 255 257 260 214 197 167 190 197 212 225 192 168 202 219 220 278 234 265 267 266 250 252 225 229 236 228 207 241 250 253 226 220 188 241 209 217 246 264 271 200
259 259 258 248 239 248 258 259 242 252 208 176 191 179 202 182 170 184 190 221 224 236 267 270 262 251 233 242 232 221 236 225 242 226 207 241 266 276 128 183 216 247 237 222 238 251 266
258 258 254 246 246 244 254 259 263 247 204 180 201 184 171 181 156 192 195 225 228 239 231 251 255 260 240 262 231 224 228 235 212 174 217 228 291 198 179 205 221 212 231 246 227 222 243
255 248 245 255 252 257 251 253 249 264 197 174 197 205 163 154 185 176 208 211 223 210 224 236 264 271 255 258 232 242 233 169 291 309 207 233 184 226 227 214 227 221 211 230 193 228 146
243 239 247 251 261 260 252 243 245 259 190 172 208 142 169 162 176 187 193 197 213 207 216 217 229 240 238 144 254 263 173 156 236 239 115 221 166 186 327 197 224 243 210 217 212 177 179
243 244 249 250 263 264 253 267 240 262 194 191 164 172 169 175 221 186 179 188 196 223 214 210 215 237 202 235 211 178 111 197 205 209 57 297 272 154 194 315 321 218 232 199 147 85 244
247 249 256 260 259 255 254 278 287 260 195 190 194 207 192 176 194 196 187 175 189 203 216 213 227 229 228 208 213 184 163 184 195 146 169 226 253 94 106 217 259 230 252 264 234 205 216
247 250 252 253 257 258 250 267 279 282 212 206 192 180 166 176 176 191 180 193 193 204 186 205 201 209 233 205 206 203 152 313 181 174 190 177 214 144 237 212 207 294 216 239 257 264 260
262 256 247 255 259 264 249 255 255 288 240 198 203 211 164 161 182 179 195 188 202 193 209 191 200 211 223 180 67 32 31 145 127 175 190 171 206 202 230 218 241 235 234 249 254 248 250
274 275 254 254 258 260 251 248 271 273 276 206 165 190 177 184 179 201 184 192 196 196 183 188 205 197 137 93 89 72 73 101 42 185 193 205 202 189 251 213 230 236 237 293 271 280 262
277 275 271 256 263 271 277 252 257 281 299 227 246 167 159 175 197 187 198 192 207 203 202 204 200 145 144 125 117 128 146 174 222 229 196 223 238 123 213 215 261 191 204 203 222 258 233
284 282 285 286 233 264 292 252 261 248 275 290 255 194 158 169 210 204 189 193 191 186 148 63 39 94 98 107 124 170 178 192 184 195 190 225 256 155 171 227 235 226 37 151 243 259 239
280 281 283 294 243 257 285 249 232 223 264 318 274 217 176 159 156 175 187 190 156 149 172 135 147 134 287 126 136 166 218 195 187 186 185 179 185 182 178 219 283 27 133 111 178 219 80
269 275 275 280 254 278 308 270 274 226 246 279 245 230 186 140 94 350 35 136 153 160 156 143 99 286 151 161 177 190 191 197 211 180 180 178 175 184 205 197 241 234 142 179 100 110 140
260 269 267 270 262 257 286 246 265 214 306 247 269 166 80 75 118 17 59 141 14 39 152 162 151 159 166 171 191 195 197 188 182 179 162 198 202 173 181 208 200 252 213 188 338 2 195